| time (UTC) | temp F | wind direction | speed MPH | gust MPH | rain 1hr in | rain 24hr in | rain mn in | humidity % | barometer mb |
| 20260831080122 | 80 | 350 | 5.0 | 11.0 | 0.00 | 0.16 | 0.00 | 66 | 974.7 |
| 20260831075549 | 80 | 288 | 3.0 | 8.0 | 0.00 | 0.16 | 0.00 | 66 | 974.8 |
| 20260831075049 | 80 | 286 | 1.0 | 8.0 | 0.00 | 0.16 | 0.00 | 66 | 974.9 |
| 20260831074549 | 80 | 309 | 5.0 | 8.0 | 0.00 | 0.16 | 0.00 | 66 | 975.1 |
| 20260831074050 | 80 | 255 | 1.0 | 4.0 | 0.00 | 0.16 | 0.00 | 64 | 975.0 |
| 20260831073050 | 80 | 256 | 1.0 | 10.0 | 0.00 | 0.16 | 0.00 | 65 | 975.1 |
| 20260831072549 | 80 | 259 | 4.0 | 10.0 | 0.00 | 0.16 | 0.00 | 65 | 975.2 |
| 20260831072049 | 80 | 174 | 4.0 | 10.0 | 0.00 | 0.16 | 0.00 | 64 | 975.1 |
| 20260831071650 | 81 | 232 | 3.0 | 11.0 | 0.00 | 0.16 | 0.00 | 65 | 975.2 |
| 20260831071150 | 81 | 338 | 3.0 | 11.0 | 0.00 | 0.16 | 0.00 | 64 | 975.3 |
| 20260831070549 | 81 | 319 | 3.0 | 9.0 | 0.00 | 0.16 | 0.00 | 62 | 975.2 |
| 20260831070050 | 81 | 215 | 3.0 | 8.0 | 0.01 | 0.16 | 0.00 | 60 | 974.8 |
| 20260831065550 | 81 | 186 | 0.0 | 14.0 | 0.01 | 0.16 | 0.16 | 60 | 974.8 |
| 20260831065051 | 81 | 156 | 7.0 | 14.0 | 0.01 | 0.16 | 0.16 | 60 | 974.7 |
| 20260831064551 | 81 | 134 | 5.0 | 16.0 | 0.01 | 0.16 | 0.16 | 60 | 974.5 |
| 20260831064045 | 82 | 136 | 9.0 | 18.0 | 0.01 | 0.16 | 0.16 | 61 | 974.4 |
| 20260831063544 | 81 | 163 | 10.0 | 18.0 | 0.01 | 0.16 | 0.16 | 62 | 974.3 |
| 20260831063100 | 81 | 168 | 7.0 | 19.0 | 0.01 | 0.16 | 0.16 | 65 | 974.2 |
| 20260831062545 | 81 | 152 | 8.0 | 19.0 | 0.01 | 0.16 | 0.16 | 65 | 974.4 |
| 20260831061542 | 83 | 173 | 10.0 | 27.0 | 0.01 | 0.16 | 0.16 | 62 | 974.4 |
| 20260831061041 | 84 | 143 | 14.0 | 38.0 | 0.01 | 0.16 | 0.16 | 60 | 974.2 |
| 20260831060539 | 84 | 159 | 12.0 | 38.0 | 0.01 | 0.16 | 0.16 | 56 | 974.3 |
| 20260831060040 | 83 | 167 | 10.0 | 20.0 | 0.00 | 0.15 | 0.15 | 65 | 974.1 |
| 20260831055540 | 83 | 192 | 3.0 | 8.0 | 0.01 | 0.15 | 0.15 | 66 | 973.6 |
| 20260831055045 | 82 | 45 | 2.0 | 6.0 | 0.06 | 0.15 | 0.15 | 58 | 973.3 |
| 20260831054540 | 81 | 333 | 0.0 | 3.0 | 0.10 | 0.15 | 0.15 | 63 | 973.0 |
| 20260831054040 | 81 | 332 | 0.0 | 9.0 | 0.14 | 0.15 | 0.15 | 63 | 972.9 |
| 20260831053140 | 81 | 360 | 7.0 | 10.0 | 0.15 | 0.15 | 0.15 | 64 | 973.8 |
| 20260831052539 | 82 | 339 | 4.0 | 12.0 | 0.15 | 0.15 | 0.15 | 64 | 974.1 |
| 20260831052040 | 82 | 355 | 8.0 | 16.0 | 0.15 | 0.15 | 0.15 | 63 | 974.5 |
| 20260831051540 | 82 | 350 | 9.0 | 22.0 | 0.15 | 0.15 | 0.15 | 62 | 974.9 |
| 20260831050540 | 82 | 17 | 22.0 | 45.0 | 0.15 | 0.15 | 0.15 | 60 | 975.0 |
| 20260831050140 | 82 | 31 | 30.0 | 45.0 | 0.15 | 0.15 | 0.15 | 58 | 974.9 |
| 20260831045540 | 82 | 36 | 26.0 | 43.0 | 0.13 | 0.13 | 0.13 | 60 | 975.1 |
| 20260831044634 | 84 | 30 | 33.0 | 42.0 | 0.05 | 0.05 | 0.05 | 57 | 974.8 |
| 20260831044039 | 86 | 360 | 26.0 | 39.0 | 0.01 | 0.01 | 0.01 | 56 | 974.8 |
| 20260831043540 | 87 | 11 | 26.0 | 42.0 | 0.00 | 0.00 | 0.00 | 56 | 974.5 |
| 20260831043040 | 87 | 26 | 25.0 | 42.0 | 0.00 | 0.00 | 0.00 | 54 | 974.3 |
| 20260831042540 | 88 | 351 | 28.0 | 42.0 | 0.00 | 0.00 | 0.00 | 51 | 974.3 |
| 20260831042141 | 89 | 360 | 32.0 | 42.0 | 0.00 | 0.00 | 0.00 | 50 | 973.7 |
| 20260831041540 | 93 | 17 | 19.0 | 30.0 | 0.00 | 0.00 | 0.00 | 47 | 972.8 |
| 20260831041040 | 95 | 15 | 21.0 | 30.0 | 0.00 | 0.00 | 0.00 | 45 | 972.5 |
| 20260831040540 | 96 | 17 | 17.0 | 24.0 | 0.00 | 0.00 | 0.00 | 40 | 971.9 |
| 20260831040040 | 97 | 17 | 16.0 | 26.0 | 0.00 | 0.00 | 0.00 | 38 | 971.9 |
| 20260831035540 | 97 | 15 | 16.0 | 31.0 | 0.00 | 0.00 | 0.00 | 38 | 971.8 |
| 20260831035039 | 98 | 360 | 20.0 | 31.0 | 0.00 | 0.00 | 0.00 | 36 | 971.7 |
| 20260831034540 | 99 | 23 | 18.0 | 31.0 | 0.00 | 0.00 | 0.00 | 35 | 971.7 |
| 20260831034040 | 100 | 360 | 16.0 | 24.0 | 0.00 | 0.00 | 0.00 | 34 | 971.5 |
| 20260831033540 | 101 | 360 | 7.0 | 12.0 | 0.00 | 0.00 | 0.00 | 32 | 971.5 |
| 20260831033053 | 101 | 360 | 7.0 | 12.0 | 0.00 | 0.00 | 0.00 | 32 | 971.2 |
| 20260831032542 | 101 | 360 | 8.0 | 12.0 | 0.00 | 0.00 | 0.00 | 31 | 971.0 |
| 20260831032040 | 101 | 360 | 4.0 | 10.0 | 0.00 | 0.00 | 0.00 | 31 | 971.1 |
| 20260831031542 | 102 | 360 | 6.0 | 11.0 | 0.00 | 0.00 | 0.00 | 30 | 971.0 |
| 20260831031039 | 102 | 360 | 6.0 | 11.0 | 0.00 | 0.00 | 0.00 | 30 | 971.0 |
| 20260831030544 | 101 | 360 | 6.0 | 13.0 | 0.00 | 0.00 | 0.00 | 30 | 971.1 |
| 20260831030040 | 101 | 360 | 4.0 | 13.0 | 0.00 | 0.00 | 0.00 | 30 | 971.0 |
| 20260831025540 | 100 | 360 | 3.0 | 6.0 | 0.00 | 0.00 | 0.00 | 31 | 971.0 |
| 20260831025041 | 100 | 360 | 3.0 | 6.0 | 0.00 | 0.00 | 0.00 | 32 | 970.9 |
| 20260831024540 | 100 | 360 | 4.0 | 6.0 | 0.00 | 0.00 | 0.00 | 32 | 970.9 |
| 20260831024043 | 101 | 360 | 3.0 | 5.0 | 0.00 | 0.00 | 0.00 | 32 | 970.8 |
| 20260831023539 | 101 | 360 | 2.0 | 6.0 | 0.00 | 0.00 | 0.00 | 32 | 970.7 |
| 20260831023040 | 101 | 12 | 4.0 | 8.0 | 0.00 | 0.00 | 0.00 | 31 | 970.5 |
| 20260831022542 | 102 | 14 | 4.0 | 9.0 | 0.00 | 0.00 | 0.00 | 31 | 970.5 |
| 20260831022040 | 102 | 17 | 6.0 | 13.0 | 0.00 | 0.00 | 0.00 | 29 | 970.5 |
| 20260831021540 | 102 | 13 | 7.0 | 13.0 | 0.00 | 0.00 | 0.00 | 29 | 970.4 |
| 20260831021040 | 102 | 12 | 6.0 | 12.0 | 0.00 | 0.00 | 0.00 | 29 | 970.2 |
| 20260831020539 | 102 | 13 | 8.0 | 12.0 | 0.00 | 0.00 | 0.00 | 29 | 970.2 |
| 20260831020040 | 102 | 15 | 7.0 | 12.0 | 0.00 | 0.00 | 0.00 | 29 | 970.0 |
| 20260831015539 | 103 | 13 | 6.0 | 11.0 | 0.00 | 0.00 | 0.00 | 29 | 970.0 |
| 20260831015042 | 102 | 17 | 7.0 | 11.0 | 0.00 | 0.00 | 0.00 | 29 | 969.9 |
| 20260831014541 | 102 | 114 | 7.0 | 10.0 | 0.00 | 0.00 | 0.00 | 29 | 969.9 |
| 20260831014040 | 102 | 134 | 6.0 | 10.0 | 0.00 | 0.00 | 0.00 | 30 | 969.8 |
| 20260831013540 | 102 | 137 | 2.0 | 8.0 | 0.00 | 0.00 | 0.00 | 31 | 969.8 |
| 20260831013040 | 103 | 144 | 2.0 | 11.0 | 0.00 | 0.00 | 0.00 | 31 | 969.8 |
| 20260831012540 | 103 | 142 | 7.0 | 12.0 | 0.00 | 0.00 | 0.00 | 31 | 969.8 |
| 20260831012039 | 103 | 162 | 7.0 | 12.0 | 0.00 | 0.00 | 0.00 | 31 | 969.7 |
| 20260831011548 | 103 | 143 | 8.0 | 11.0 | 0.00 | 0.00 | 0.00 | 30 | 969.8 |
| 20260831011039 | 103 | 115 | 6.0 | 11.0 | 0.00 | 0.00 | 0.00 | 30 | 969.8 |
| 20260831010539 | 104 | 118 | 5.0 | 11.0 | 0.00 | 0.00 | 0.00 | 30 | 969.8 |
| 20260831010056 | 104 | 198 | 3.0 | 8.0 | 0.00 | 0.00 | 0.00 | 30 | 969.8 |
| 20260831005540 | 104 | 182 | 4.0 | 8.0 | 0.00 | 0.00 | 0.00 | 31 | 969.8 |
| 20260831005040 | 103 | 150 | 5.0 | 9.0 | 0.00 | 0.00 | 0.00 | 31 | 970.0 |
| 20260831004540 | 103 | 44 | 4.0 | 12.0 | 0.00 | 0.00 | 0.00 | 31 | 969.9 |
| 20260831004040 | 103 | 83 | 8.0 | 12.0 | 0.00 | 0.00 | 0.00 | 30 | 970.0 |
| 20260831003540 | 104 | 73 | 5.0 | 15.0 | 0.00 | 0.00 | 0.00 | 30 | 970.0 |
| 20260831003040 | 104 | 143 | 9.0 | 15.0 | 0.00 | 0.00 | 0.00 | 30 | 969.9 |
| 20260831002539 | 104 | 130 | 9.0 | 18.0 | 0.00 | 0.00 | 0.00 | 30 | 970.0 |
| 20260831002040 | 104 | 130 | 11.0 | 18.0 | 0.00 | 0.00 | 0.00 | 30 | 970.0 |
| 20260831001540 | 104 | 140 | 11.0 | 15.0 | 0.00 | 0.00 | 0.00 | 30 | 970.0 |
| 20260831001040 | 104 | 132 | 6.0 | 10.0 | 0.00 | 0.00 | 0.00 | 30 | 970.0 |
| 20260831000539 | 104 | 169 | 7.0 | 12.0 | 0.00 | 0.00 | 0.00 | 30 | 970.1 |
| 20260831000040 | 104 | 99 | 7.0 | 13.0 | 0.00 | 0.00 | 0.00 | 30 | 970.1 |
| 20260830235540 | 104 | 111 | 9.0 | 14.0 | 0.00 | 0.00 | 0.00 | 30 | 970.1 |
| 20260830235039 | 104 | 90 | 10.0 | 14.0 | 0.00 | 0.00 | 0.00 | 29 | 970.2 |
| 20260830234540 | 104 | 73 | 8.0 | 13.0 | 0.00 | 0.00 | 0.00 | 29 | 970.1 |
| 20260830234040 | 104 | 90 | 9.0 | 20.0 | 0.00 | 0.00 | 0.00 | 29 | 970.2 |
| 20260830233541 | 104 | 82 | 7.0 | 14.0 | 0.00 | 0.00 | 0.00 | 29 | 970.1 |
| 20260830233042 | 104 | 142 | 7.0 | 16.0 | 0.00 | 0.00 | 0.00 | 29 | 970.2 |
| 20260830232541 | 104 | 138 | 11.0 | 16.0 | 0.00 | 0.00 | 0.00 | 29 | 970.3 |
| 20260830232040 | 104 | 94 | 8.0 | 18.0 | 0.00 | 0.00 | 0.00 | 29 | 970.4 |
| 20260830231540 | 105 | 105 | 9.0 | 13.0 | 0.00 | 0.00 | 0.00 | 29 | 970.6 |
| 20260830231040 | 104 | 126 | 3.0 | 12.0 | 0.00 | 0.00 | 0.00 | 29 | 970.6 |
| 20260830230542 | 104 | 112 | 7.0 | 13.0 | 0.00 | 0.00 | 0.00 | 30 | 970.6 |
| 20260830230039 | 104 | 103 | 4.0 | 13.0 | 0.00 | 0.00 | 0.00 | 30 | 970.6 |
| 20260830225540 | 104 | 121 | 10.0 | 16.0 | 0.00 | 0.00 | 0.00 | 30 | 970.6 |
| 20260830225040 | 104 | 94 | 10.0 | 16.0 | 0.00 | 0.00 | 0.00 | 30 | 970.8 |
| 20260830224541 | 104 | 121 | 10.0 | 15.0 | 0.00 | 0.00 | 0.00 | 29 | 971.0 |
| 20260830224040 | 104 | 53 | 9.0 | 15.0 | 0.00 | 0.00 | 0.00 | 29 | 970.9 |
| 20260830223540 | 104 | 106 | 7.0 | 13.0 | 0.00 | 0.00 | 0.00 | 29 | 971.1 |
| 20260830223040 | 104 | 114 | 3.0 | 13.0 | 0.00 | 0.00 | 0.00 | 30 | 971.1 |
| 20260830222540 | 104 | 130 | 7.0 | 15.0 | 0.00 | 0.00 | 0.00 | 30 | 971.2 |
| 20260830222040 | 104 | 95 | 9.0 | 15.0 | 0.00 | 0.00 | 0.00 | 30 | 971.3 |
| 20260830221540 | 104 | 110 | 9.0 | 17.0 | 0.00 | 0.00 | 0.00 | 30 | 971.5 |
| 20260830221040 | 104 | 124 | 7.0 | 17.0 | 0.00 | 0.00 | 0.00 | 30 | 971.4 |
| 20260830220540 | 104 | 129 | 7.0 | 16.0 | 0.00 | 0.00 | 0.00 | 30 | 971.5 |
| 20260830220040 | 104 | 134 | 11.0 | 16.0 | 0.00 | 0.00 | 0.00 | 30 | 971.8 |
| 20260830215540 | 104 | 124 | 9.0 | 14.0 | 0.00 | 0.00 | 0.00 | 30 | 971.7 |
| 20260830215040 | 104 | 100 | 10.0 | 15.0 | 0.00 | 0.00 | 0.00 | 30 | 971.9 |
| 20260830214539 | 104 | 63 | 3.0 | 15.0 | 0.00 | 0.00 | 0.00 | 30 | 972.1 |
| 20260830214039 | 104 | 66 | 7.0 | 15.0 | 0.00 | 0.00 | 0.00 | 29 | 972.2 |
| 20260830213539 | 104 | 124 | 2.0 | 12.0 | 0.00 | 0.00 | 0.00 | 30 | 972.1 |
| 20260830213053 | 104 | 163 | 7.0 | 12.0 | 0.00 | 0.00 | 0.00 | 30 | 972.3 |
| 20260830212542 | 103 | 94 | 6.0 | 14.0 | 0.00 | 0.00 | 0.00 | 30 | 972.5 |
| 20260830212040 | 103 | 66 | 10.0 | 16.0 | 0.00 | 0.00 | 0.00 | 31 | 972.5 |
| 20260830211540 | 104 | 98 | 8.0 | 16.0 | 0.00 | 0.00 | 0.00 | 30 | 972.6 |
| 20260830211044 | 104 | 92 | 4.0 | 13.0 | 0.00 | 0.00 | 0.00 | 30 | 972.7 |
| 20260830210539 | 105 | 81 | 5.0 | 9.0 | 0.00 | 0.00 | 0.00 | 30 | 972.9 |
| 20260830210040 | 105 | 76 | 2.0 | 8.0 | 0.00 | 0.00 | 0.00 | 30 | 972.9 |
| 20260830205539 | 104 | 281 | 3.0 | 13.0 | 0.00 | 0.00 | 0.00 | 31 | 972.9 |
| 20260830205040 | 103 | 256 | 5.0 | 13.0 | 0.00 | 0.00 | 0.00 | 31 | 973.0 |
| 20260830204542 | 103 | 261 | 6.0 | 13.0 | 0.00 | 0.00 | 0.00 | 31 | 973.2 |
| 20260830204040 | 103 | 286 | 5.0 | 12.0 | 0.00 | 0.00 | 0.00 | 31 | 973.4 |
| 20260830203540 | 103 | 84 | 2.0 | 10.0 | 0.00 | 0.00 | 0.00 | 32 | 973.4 |
| 20260830203040 | 104 | 65 | 6.0 | 10.0 | 0.00 | 0.00 | 0.00 | 31 | 973.6 |
| 20260830202542 | 105 | 253 | 4.0 | 9.0 | 0.00 | 0.00 | 0.00 | 30 | 973.6 |
| 20260830202039 | 104 | 86 | 1.0 | 9.0 | 0.00 | 0.00 | 0.00 | 31 | 973.7 |
| 20260830201540 | 104 | 136 | 3.0 | 8.0 | 0.00 | 0.00 | 0.00 | 31 | 973.8 |
| 20260830201042 | 104 | 86 | 1.0 | 9.0 | 0.00 | 0.00 | 0.00 | 31 | 974.0 |
| 20260830200539 | 104 | 105 | 6.0 | 9.0 | 0.00 | 0.00 | 0.00 | 31 | 974.1 |
| 20260830200040 | 104 | 246 | 2.0 | 7.0 | 0.00 | 0.00 | 0.00 | 31 | 974.1 |
| 20260830195540 | 104 | 242 | 1.0 | 7.0 | 0.00 | 0.00 | 0.00 | 32 | 974.1 |
| 20260830195040 | 103 | 212 | 1.0 | 7.0 | 0.00 | 0.00 | 0.00 | 32 | 974.2 |
| 20260830194540 | 103 | 218 | 5.0 | 10.0 | 0.00 | 0.00 | 0.00 | 32 | 974.3 |
| 20260830194040 | 103 | 198 | 7.0 | 10.0 | 0.00 | 0.00 | 0.00 | 32 | 974.3 |
| 20260830193540 | 103 | 165 | 6.0 | 12.0 | 0.00 | 0.00 | 0.00 | 32 | 974.2 |
| 20260830193040 | 102 | 191 | 6.0 | 9.0 | 0.00 | 0.00 | 0.00 | 32 | 974.2 |
| 20260830192539 | 102 | 162 | 5.0 | 9.0 | 0.00 | 0.00 | 0.00 | 32 | 974.5 |
| 20260830192041 | 102 | 178 | 2.0 | 6.0 | 0.00 | 0.00 | 0.00 | 33 | 974.7 |
| 20260830191540 | 101 | 196 | 2.0 | 7.0 | 0.00 | 0.00 | 0.00 | 33 | 974.7 |
| 20260830191040 | 101 | 195 | 4.0 | 11.0 | 0.00 | 0.00 | 0.00 | 33 | 974.9 |
| 20260830190540 | 101 | 155 | 6.0 | 11.0 | 0.00 | 0.00 | 0.00 | 33 | 975.0 |
| 20260830190040 | 101 | 109 | 1.0 | 12.0 | 0.00 | 0.00 | 0.00 | 34 | 975.1 |
| 20260830185542 | 102 | 142 | 6.0 | 12.0 | 0.00 | 0.00 | 0.00 | 33 | 975.1 |
| 20260830185040 | 103 | 148 | 3.0 | 9.0 | 0.00 | 0.00 | 0.00 | 32 | 975.0 |
| 20260830184542 | 102 | 194 | 4.0 | 9.0 | 0.00 | 0.00 | 0.00 | 33 | 975.2 |
| 20260830184039 | 102 | 160 | 5.0 | 8.0 | 0.00 | 0.00 | 0.00 | 33 | 975.3 |
| 20260830183541 | 101 | 259 | 3.0 | 7.0 | 0.00 | 0.00 | 0.00 | 33 | 975.4 |
| 20260830183040 | 101 | 275 | 4.0 | 7.0 | 0.00 | 0.00 | 0.00 | 33 | 975.5 |
| 20260830182543 | 100 | 36 | 1.0 | 11.0 | 0.00 | 0.00 | 0.00 | 34 | 975.5 |
| 20260830182043 | 100 | 34 | 4.0 | 11.0 | 0.00 | 0.00 | 0.00 | 34 | 975.4 |
| 20260830181543 | 99 | 44 | 6.0 | 11.0 | 0.00 | 0.00 | 0.00 | 35 | 975.6 |
| 20260830181039 | 99 | 340 | 6.0 | 11.0 | 0.00 | 0.00 | 0.00 | 35 | 975.6 |
| 20260830180539 | 99 | 323 | 6.0 | 11.0 | 0.00 | 0.00 | 0.00 | 34 | 975.7 |
| 20260830180041 | 99 | 325 | 5.0 | 9.0 | 0.00 | 0.00 | 0.00 | 35 | 975.8 |
| 20260830175539 | 99 | 44 | 2.0 | 10.0 | 0.00 | 0.00 | 0.00 | 35 | 975.8 |
| 20260830175040 | 98 | 360 | 4.0 | 10.0 | 0.00 | 0.00 | 0.00 | 36 | 975.9 |
| 20260830174540 | 99 | 339 | 5.0 | 14.0 | 0.00 | 0.00 | 0.00 | 35 | 976.0 |
| 20260830174039 | 98 | 10 | 9.0 | 14.0 | 0.00 | 0.00 | 0.00 | 36 | 975.9 |
| 20260830173539 | 98 | 325 | 7.0 | 13.0 | 0.00 | 0.00 | 0.00 | 36 | 976.0 |
| 20260830173042 | 98 | 338 | 5.0 | 13.0 | 0.00 | 0.00 | 0.00 | 36 | 976.0 |
| 20260830172540 | 98 | 344 | 6.0 | 11.0 | 0.00 | 0.00 | 0.00 | 36 | 976.0 |
| 20260830172040 | 98 | 328 | 5.0 | 10.0 | 0.00 | 0.00 | 0.00 | 36 | 976.1 |
| 20260830171540 | 98 | 252 | 4.0 | 9.0 | 0.00 | 0.00 | 0.00 | 36 | 976.2 |
| 20260830171040 | 98 | 239 | 1.0 | 7.0 | 0.00 | 0.00 | 0.00 | 37 | 976.1 |
| 20260830170539 | 97 | 294 | 1.0 | 8.0 | 0.00 | 0.00 | 0.00 | 37 | 976.0 |
| 20260830170040 | 97 | 296 | 2.0 | 6.0 | 0.00 | 0.00 | 0.00 | 37 | 976.2 |
| 20260830165542 | 97 | 336 | 1.0 | 9.0 | 0.00 | 0.00 | 0.00 | 37 | 976.1 |
| 20260830165039 | 97 | 338 | 2.0 | 8.0 | 0.00 | 0.00 | 0.00 | 37 | 976.2 |
| 20260830164539 | 97 | 258 | 3.0 | 7.0 | 0.00 | 0.00 | 0.00 | 37 | 976.2 |
| 20260830164040 | 96 | 348 | 1.0 | 9.0 | 0.00 | 0.00 | 0.00 | 38 | 976.2 |
| 20260830163540 | 95 | 348 | 0.0 | 9.0 | 0.00 | 0.00 | 0.00 | 39 | 976.1 |
| 20260830163040 | 94 | 15 | 2.0 | 9.0 | 0.00 | 0.00 | 0.00 | 40 | 976.1 |
| 20260830162540 | 94 | 351 | 3.0 | 10.0 | 0.00 | 0.00 | 0.00 | 39 | 976.2 |
| 20260830162039 | 94 | 5 | 3.0 | 12.0 | 0.00 | 0.00 | 0.00 | 41 | 976.2 |
| 20260830161556 | 93 | 9 | 5.0 | 12.0 | 0.00 | 0.00 | 0.00 | 41 | 976.3 |
| 20260830161039 | 92 | 17 | 6.0 | 11.0 | 0.00 | 0.00 | 0.00 | 41 | 976.2 |
| 20260830160539 | 92 | 17 | 6.0 | 12.0 | 0.00 | 0.00 | 0.00 | 42 | 976.2 |
| 20260830160040 | 92 | 16 | 7.0 | 12.0 | 0.00 | 0.00 | 0.00 | 43 | 976.2 |
| 20260830155544 | 91 | 145 | 7.0 | 11.0 | 0.00 | 0.00 | 0.00 | 43 | 976.3 |
| 20260830155040 | 91 | 16 | 7.0 | 11.0 | 0.00 | 0.00 | 0.00 | 44 | 976.3 |
| 20260830154540 | 91 | 16 | 5.0 | 9.0 | 0.00 | 0.00 | 0.00 | 44 | 976.2 |
| 20260830154040 | 91 | 360 | 6.0 | 10.0 | 0.00 | 0.00 | 0.00 | 45 | 976.1 |
| 20260830153539 | 90 | 17 | 6.0 | 11.0 | 0.00 | 0.00 | 0.00 | 45 | 976.1 |
| 20260830153040 | 90 | 320 | 7.0 | 11.0 | 0.00 | 0.00 | 0.00 | 45 | 976.2 |
| 20260830152539 | 90 | 348 | 6.0 | 11.0 | 0.00 | 0.00 | 0.00 | 46 | 976.1 |
| 20260830152039 | 89 | 40 | 6.0 | 11.0 | 0.00 | 0.00 | 0.00 | 46 | 976.2 |
| 20260830151540 | 89 | 360 | 5.0 | 11.0 | 0.00 | 0.00 | 0.00 | 47 | 976.2 |
| 20260830151040 | 88 | 360 | 6.0 | 13.0 | 0.00 | 0.00 | 0.00 | 47 | 976.1 |
| 20260830150540 | 88 | 360 | 9.0 | 13.0 | 0.00 | 0.00 | 0.00 | 47 | 976.2 |
| 20260830150108 | 88 | 360 | 8.0 | 11.0 | 0.00 | 0.00 | 0.00 | 48 | 976.4 |
| 20260830145540 | 87 | 360 | 4.0 | 11.0 | 0.00 | 0.00 | 0.00 | 50 | 976.3 |
| 20260830145039 | 87 | 360 | 5.0 | 9.0 | 0.00 | 0.00 | 0.00 | 51 | 976.3 |
| 20260830144539 | 86 | 360 | 4.0 | 9.0 | 0.00 | 0.00 | 0.00 | 52 | 976.2 |
| 20260830144039 | 86 | 360 | 4.0 | 9.0 | 0.00 | 0.00 | 0.00 | 52 | 976.2 |
| 20260830143540 | 85 | 360 | 5.0 | 10.0 | 0.00 | 0.00 | 0.00 | 52 | 976.3 |
| 20260830143043 | 85 | 360 | 6.0 | 11.0 | 0.00 | 0.00 | 0.00 | 52 | 976.4 |
| 20260830142540 | 85 | 360 | 9.0 | 11.0 | 0.00 | 0.00 | 0.00 | 53 | 976.1 |
| 20260830142040 | 84 | 360 | 7.0 | 12.0 | 0.00 | 0.00 | 0.00 | 53 | 976.1 |
| 20260830141539 | 84 | 360 | 9.0 | 13.0 | 0.00 | 0.00 | 0.00 | 53 | 976.1 |
| 20260830141039 | 84 | 360 | 11.0 | 14.0 | 0.00 | 0.00 | 0.00 | 53 | 976.1 |
| 20260830140539 | 84 | 360 | 11.0 | 14.0 | 0.00 | 0.00 | 0.00 | 52 | 976.1 |
| 20260830140040 | 84 | 360 | 9.0 | 12.0 | 0.00 | 0.00 | 0.00 | 53 | 976.0 |
| 20260830135540 | 84 | 360 | 9.0 | 12.0 | 0.00 | 0.00 | 0.00 | 52 | 976.0 |
| 20260830135040 | 85 | 360 | 8.0 | 11.0 | 0.00 | 0.00 | 0.00 | 52 | 975.9 |
| 20260830134543 | 85 | 360 | 8.0 | 11.0 | 0.00 | 0.00 | 0.00 | 52 | 975.9 |
| 20260830134039 | 85 | 360 | 7.0 | 12.0 | 0.00 | 0.00 | 0.00 | 52 | 975.7 |
| 20260830133540 | 85 | 360 | 7.0 | 12.0 | 0.00 | 0.00 | 0.00 | 52 | 975.7 |
| 20260830133045 | 85 | 360 | 7.0 | 15.0 | 0.00 | 0.00 | 0.00 | 52 | 975.6 |
| 20260830132539 | 85 | 360 | 11.0 | 15.0 | 0.00 | 0.00 | 0.00 | 52 | 975.8 |
| 20260830132039 | 85 | 360 | 9.0 | 13.0 | 0.00 | 0.00 | 0.00 | 52 | 975.6 |
| 20260830131540 | 85 | 360 | 8.0 | 12.0 | 0.00 | 0.00 | 0.00 | 52 | 975.5 |
| 20260830131040 | 84 | 360 | 8.0 | 12.0 | 0.00 | 0.00 | 0.00 | 52 | 975.2 |
| 20260830130542 | 84 | 360 | 5.0 | 9.0 | 0.00 | 0.00 | 0.00 | 52 | 975.2 |
| 20260830130039 | 84 | 360 | 4.0 | 9.0 | 0.00 | 0.00 | 0.00 | 53 | 975.1 |
| 20260830125541 | 84 | 360 | 3.0 | 6.0 | 0.00 | 0.00 | 0.00 | 53 | 974.9 |
| 20260830125039 | 84 | 360 | 4.0 | 6.0 | 0.00 | 0.00 | 0.00 | 53 | 974.7 |
| 20260830124539 | 83 | 360 | 4.0 | 6.0 | 0.00 | 0.00 | 0.00 | 53 | 974.7 |
| 20260830124039 | 83 | 360 | 2.0 | 4.0 | 0.00 | 0.00 | 0.00 | 54 | 974.6 |
| 20260830123540 | 83 | 360 | 2.0 | 4.0 | 0.00 | 0.00 | 0.00 | 54 | 974.6 |
| 20260830123040 | 83 | 360 | 0.0 | 4.0 | 0.00 | 0.00 | 0.00 | 54 | 974.4 |
| 20260830122539 | 83 | 360 | 1.0 | 5.0 | 0.00 | 0.00 | 0.00 | 55 | 974.4 |
| 20260830122039 | 83 | 360 | 3.0 | 8.0 | 0.00 | 0.00 | 0.00 | 55 | 974.3 |
| 20260830121548 | 82 | 360 | 4.0 | 8.0 | 0.00 | 0.00 | 0.00 | 55 | 974.2 |
| 20260830121040 | 82 | 360 | 4.0 | 6.0 | 0.00 | 0.00 | 0.00 | 55 | 974.1 |
| 20260830120539 | 82 | 360 | 3.0 | 6.0 | 0.00 | 0.00 | 0.00 | 55 | 974.2 |
| 20260830120040 | 82 | 360 | 3.0 | 5.0 | 0.00 | 0.00 | 0.00 | 55 | 974.2 |
| 20260830115540 | 82 | 360 | 3.0 | 8.0 | 0.00 | 0.00 | 0.00 | 54 | 974.2 |
| 20260830115040 | 83 | 360 | 3.0 | 10.0 | 0.00 | 0.00 | 0.00 | 54 | 974.3 |
| 20260830114549 | 83 | 360 | 6.0 | 10.0 | 0.00 | 0.00 | 0.00 | 54 | 974.1 |
| 20260830114040 | 83 | 360 | 7.0 | 10.0 | 0.00 | 0.00 | 0.00 | 54 | 974.1 |
| 20260830113539 | 83 | 360 | 5.0 | 10.0 | 0.00 | 0.00 | 0.00 | 53 | 974.1 |
| 20260830113039 | 84 | 360 | 4.0 | 12.0 | 0.00 | 0.00 | 0.00 | 51 | 974.2 |
| 20260830112539 | 85 | 360 | 8.0 | 12.0 | 0.00 | 0.00 | 0.00 | 50 | 974.3 |
| 20260830112040 | 86 | 360 | 6.0 | 10.0 | 0.00 | 0.00 | 0.00 | 48 | 974.2 |
| 20260830111540 | 86 | 360 | 3.0 | 4.0 | 0.00 | 0.00 | 0.00 | 48 | 974.1 |
| 20260830111039 | 86 | 360 | 1.0 | 3.0 | 0.00 | 0.00 | 0.00 | 48 | 974.2 |
| 20260830110539 | 86 | 360 | 1.0 | 3.0 | 0.00 | 0.00 | 0.00 | 48 | 974.1 |
| 20260830110040 | 86 | 360 | 0.0 | 4.0 | 0.00 | 0.00 | 0.00 | 48 | 974.2 |
| 20260830105540 | 86 | 360 | 2.0 | 5.0 | 0.00 | 0.00 | 0.00 | 48 | 974.3 |
| 20260830105040 | 86 | 360 | 3.0 | 5.0 | 0.00 | 0.00 | 0.00 | 48 | 974.3 |
| 20260830104540 | 86 | 286 | 4.0 | 6.0 | 0.00 | 0.00 | 0.00 | 48 | 974.2 |
| 20260830104044 | 86 | 360 | 3.0 | 5.0 | 0.00 | 0.00 | 0.00 | 49 | 974.1 |
| 20260830103540 | 85 | 360 | 2.0 | 4.0 | 0.00 | 0.00 | 0.00 | 49 | 974.2 |
| 20260830103040 | 85 | 360 | 2.0 | 4.0 | 0.00 | 0.00 | 0.00 | 50 | 974.2 |
| 20260830102540 | 85 | 360 | 2.0 | 4.0 | 0.00 | 0.00 | 0.00 | 50 | 974.1 |
| 20260830102039 | 85 | 360 | 3.0 | 4.0 | 0.00 | 0.00 | 0.00 | 50 | 974.0 |
| 20260830101546 | 86 | 360 | 2.0 | 4.0 | 0.00 | 0.00 | 0.00 | 50 | 974.1 |
| 20260830101039 | 86 | 360 | 1.0 | 4.0 | 0.00 | 0.00 | 0.00 | 49 | 974.0 |
| 20260830100539 | 86 | 360 | 2.0 | 3.0 | 0.00 | 0.00 | 0.00 | 49 | 974.0 |
| 20260830100040 | 86 | 360 | 2.0 | 4.0 | 0.00 | 0.00 | 0.00 | 49 | 973.9 |
| 20260830095540 | 86 | 360 | 2.0 | 4.0 | 0.00 | 0.00 | 0.00 | 49 | 973.9 |
| 20260830095040 | 87 | 360 | 1.0 | 4.0 | 0.00 | 0.00 | 0.00 | 49 | 973.9 |
| 20260830094539 | 87 | 360 | 2.0 | 5.0 | 0.00 | 0.00 | 0.00 | 48 | 974.0 |
| 20260830094040 | 87 | 360 | 3.0 | 6.0 | 0.00 | 0.00 | 0.00 | 47 | 973.7 |
| 20260830093542 | 87 | 360 | 3.0 | 6.0 | 0.00 | 0.00 | 0.00 | 47 | 973.7 |
| 20260830093039 | 87 | 360 | 3.0 | 5.0 | 0.00 | 0.00 | 0.00 | 47 | 973.8 |
| 20260830092540 | 88 | 360 | 3.0 | 5.0 | 0.00 | 0.00 | 0.00 | 47 | 973.8 |
| 20260830092040 | 88 | 360 | 3.0 | 6.0 | 0.00 | 0.00 | 0.00 | 46 | 973.8 |
| 20260830091540 | 88 | 360 | 3.0 | 9.0 | 0.00 | 0.00 | 0.00 | 46 | 973.7 |
| 20260830091040 | 88 | 360 | 3.0 | 10.0 | 0.00 | 0.00 | 0.00 | 46 | 973.7 |
| 20260830090540 | 88 | 360 | 4.0 | 10.0 | 0.00 | 0.00 | 0.00 | 46 | 973.7 |
| 20260830090055 | 88 | 360 | 4.0 | 10.0 | 0.00 | 0.00 | 0.00 | 46 | 973.7 |
| 20260830085539 | 88 | 360 | 6.0 | 10.0 | 0.00 | 0.00 | 0.00 | 46 | 973.8 |
| 20260830085039 | 88 | 360 | 6.0 | 9.0 | 0.00 | 0.00 | 0.00 | 47 | 973.7 |
| 20260830084541 | 87 | 360 | 4.0 | 11.0 | 0.00 | 0.00 | 0.00 | 47 | 973.7 |
| 20260830084040 | 87 | 360 | 7.0 | 11.0 | 0.00 | 0.00 | 0.00 | 48 | 973.8 |
| 20260830083539 | 87 | 360 | 4.0 | 8.0 | 0.00 | 0.00 | 0.00 | 48 | 973.9 |
| 20260830083045 | 87 | 360 | 4.0 | 8.0 | 0.00 | 0.00 | 0.00 | 49 | 973.9 |
| 20260830082539 | 87 | 360 | 3.0 | 6.0 | 0.00 | 0.00 | 0.00 | 49 | 973.8 |
| 20260830082039 | 87 | 360 | 4.0 | 9.0 | 0.00 | 0.00 | 0.00 | 49 | 973.6 |
| 20260830081543 | 87 | 360 | 4.0 | 9.0 | 0.00 | 0.00 | 0.00 | 49 | 973.8 |
| 20260830081040 | 87 | 360 | 5.0 | 9.0 | 0.00 | 0.00 | 0.00 | 49 | 973.9 |
| 20260830080540 | 87 | 360 | 6.0 | 9.0 | 0.00 | 0.00 | 0.00 | 49 | 973.8 |